Weather History for Laramie, WY

Change the Weather History Date:

Monday, January 27, 2014

  Actual Average Record
Temperature  
Mean Temperature 3 °F 22 °F  
Max Temperature 13 °F 33 °F 55 °F (2003)
Min Temperature -8 °F 10 °F -36 °F (1961)
Degree Days  
Heating Degree Days 62 43  
Month to date heating degree days 1147 1162  
Since 1 July heating degree days 4670 4835  
Cooling Degree Days 0 0  
Month to date cooling degree days 0 0  
Year to date cooling degree days 0 0  
Moisture  
Dew Point 6 °F    
Average Humidity 78    
Maximum Humidity 92    
Minimum Humidity 64    
Precipitation  
Precipitation 0.07 in 0.01 in 0.40 in (1980)
Month to date precipitation 0.17 0.23  
Year to date precipitation 0.17 0.23  
Sea Level Pressure  
Sea Level Pressure 30.02 in    
Wind  
Wind Speed 6 mph (NNW)    
Max Wind Speed 17 mph    
Max Gust Speed 21 mph    
Visibility 2 miles    
Events Fog , Snow    
T = Trace of Precipitation, MM = Missing Value Source: NWS Daily Summary

Daily Weather History Graph

Daily Weather History Graph

Search for Another Location

Airport:

Trip Planner

Search our weather history database for the weather conditions in past years. The results will help you decide how hot, cold, wet, or windy it might be!

Date:

Astronomy

Jan. 27, 2014 Rise Set
Actual Time 7:18 AM MST 5:12 PM MST
Civil Twilight 6:48 AM MST 5:42 PM MST
Nautical Twilight 6:15 AM MST 6:15 PM MST
Astronomical Twilight 5:42 AM MST 6:48 PM MST
Moon 4:02 AM MST (1/27) 2:01 PM MST (1/27)
Length of Visible Light 10h 53m
Length of Day
9h 54m
Waning Crescent, 14% of the Moon is Illuminated
Jan 27
Waning Crescent
Jan 30
New
Feb 6
First Quarter
Feb 14
Full
Feb 22
Last Quarter

Hourly Weather History & Observations

Time (MST) Temp. Windchill Dew Point Humidity Pressure Visibility Wind Dir Wind Speed Gust Speed Precip Events Conditions
12:53 AM 10.9 °F - 8.1 °F 88% 30.03 in 1.8 mi Calm Calm - 0.00 in Snow Light Snow
1:19 AM 10.4 °F - 8.6 °F 92% 29.97 in 1.8 mi Calm Calm - 0.00 in Snow Light Snow
1:27 AM 10.4 °F - 8.6 °F 92% 29.97 in 2.0 mi Calm Calm - 0.00 in Snow Light Snow
1:53 AM 10.9 °F - 8.1 °F 88% 30.03 in 3.0 mi Calm Calm - 0.00 in Snow Light Snow
2:53 AM 10.9 °F - 8.1 °F 88% 30.04 in 1.8 mi Calm Calm - 0.00 in Snow Light Snow
3:03 AM 10.4 °F - 8.6 °F 92% 29.96 in 2.0 mi Calm Calm - 0.00 in Snow Light Snow
3:29 AM 10.4 °F - 6.8 °F 85% 29.95 in 4.0 mi Calm Calm - 0.00 in Snow Light Snow
3:45 AM 10.4 °F - 6.8 °F 85% 29.94 in 2.5 mi Calm Calm - 0.00 in Snow Light Snow
3:53 AM 10.9 °F - 7.0 °F 84% 30.04 in 2.5 mi Calm Calm - 0.00 in Snow Light Snow
4:19 AM 10.4 °F - 6.8 °F 85% 29.94 in 3.0 mi Calm Calm - 0.00 in Snow Light Snow
4:24 AM 10.4 °F 4.0 °F 6.8 °F 85% 29.94 in 1.8 mi SW 3.5 mph - 0.00 in Snow Light Snow
4:41 AM 10.4 °F - 8.6 °F 92% 29.93 in 2.5 mi Calm Calm - 0.00 in Snow Light Snow
4:53 AM 10.9 °F 4.7 °F 8.1 °F 88% 30.06 in 2.0 mi SW 3.5 mph - 0.00 in Snow Light Snow
4:59 AM 10.4 °F - 8.6 °F 92% 29.93 in 1.8 mi Calm Calm - 0.00 in Snow Light Snow
5:32 AM 10.4 °F 4.0 °F 8.6 °F 92% 29.92 in 0.8 mi SSW 3.5 mph - 0.01 in Snow Light Snow
5:53 AM 10.9 °F 2.9 °F 7.0 °F 84% 30.07 in 0.8 mi South 4.6 mph - 0.01 in Snow Light Snow
6:27 AM 10.4 °F 2.2 °F 8.6 °F 92% 29.92 in 1.0 mi South 4.6 mph - 0.01 in Snow Light Snow
6:53 AM 10.0 °F 1.8 °F 7.0 °F 87% 30.10 in 1.2 mi SSE 4.6 mph - 0.01 in Snow Light Snow
7:15 AM 10.4 °F 4.0 °F 6.8 °F 85% 29.92 in 0.8 mi SSE 3.5 mph - 0.00 in Snow Light Snow
7:28 AM 10.4 °F - 8.6 °F 92% 29.92 in 0.5 mi Calm Calm - 0.00 in Fog , Snow Snow
7:53 AM 10.9 °F - 8.1 °F 88% 30.12 in 0.2 mi Calm Calm - 0.01 in Fog , Snow Snow
8:46 AM 10.4 °F 4.0 °F 8.6 °F 92% 29.94 in 0.5 mi South 3.5 mph - 0.02 in Fog , Snow Light Snow
8:53 AM 10.9 °F 4.7 °F 8.1 °F 88% 30.14 in 0.5 mi SSW 3.5 mph - 0.02 in Fog , Snow Light Snow
9:26 AM 10.4 °F - 8.6 °F 92% 29.95 in 0.2 mi Calm Calm - 0.01 in Fog , Snow Snow
9:46 AM 12.2 °F - 8.6 °F 85% 29.95 in 0.5 mi Calm Calm - 0.01 in Fog , Snow Light Snow
9:53 AM 12.0 °F - 9.0 °F 88% 30.15 in 0.5 mi Calm Calm - 0.01 in Fog , Snow Light Snow
10:06 AM 12.2 °F - 8.6 °F 85% 29.95 in 0.8 mi Calm Calm - 0.00 in Snow Light Snow
10:21 AM 12.2 °F 4.3 °F 8.6 °F 85% 29.95 in 0.5 mi NW 4.6 mph - 0.00 in Fog , Snow Light Snow
10:39 AM 12.2 °F 1.7 °F 8.6 °F 85% 29.95 in 0.8 mi North 6.9 mph - 0.00 in Snow Light Snow
10:46 AM 12.2 °F -0.2 °F 8.6 °F 85% 29.95 in 0.5 mi North 9.2 mph - 0.00 in Fog , Snow Light Snow
10:53 AM 12.0 °F 1.5 °F 7.0 °F 80% 30.16 in 0.5 mi North 6.9 mph - 0.00 in Snow Snow
11:11 AM 12.2 °F 2.9 °F 6.8 °F 79% 29.95 in 0.8 mi NNE 5.8 mph - 0.00 in Snow Light Snow
11:19 AM 12.2 °F 4.3 °F 6.8 °F 79% 29.95 in 1.2 mi NNE 4.6 mph - 0.00 in Snow Light Snow
11:27 AM 12.2 °F 4.3 °F 6.8 °F 79% 29.95 in 2.0 mi North 4.6 mph - 0.00 in Snow Light Snow
11:49 AM 12.2 °F 6.1 °F 8.6 °F 85% 29.94 in 4.0 mi NNE 3.5 mph - 0.00 in   Haze
11:53 AM 12.9 °F - 8.1 °F 81% 30.14 in 2.5 mi Calm Calm - 0.00 in Snow Light Snow
12:01 PM 12.2 °F - 8.6 °F 85% 29.94 in 1.0 mi Calm Calm - 0.00 in Snow Light Snow
12:05 PM 12.2 °F - 8.6 °F 85% 29.94 in 0.8 mi Calm Calm - 0.00 in Snow Light Snow
12:16 PM 12.2 °F - 6.8 °F 79% 29.94 in 0.5 mi Calm Calm - 0.00 in Snow Snow
12:37 PM 12.2 °F 2.9 °F 6.8 °F 79% 29.93 in 0.5 mi NNW 5.8 mph - 0.01 in Snow Snow
12:53 PM 12.0 °F -0.4 °F 7.0 °F 80% 30.13 in 0.5 mi NNW 9.2 mph - 0.01 in Snow Snow
1:06 PM 12.2 °F 0.7 °F 6.8 °F 79% 29.92 in 0.8 mi NNW 8.1 mph - 0.00 in Snow Light Snow
1:42 PM 12.2 °F 0.7 °F 6.8 °F 79% 29.91 in 0.5 mi North 8.1 mph - 0.00 in Snow Snow
1:53 PM 10.9 °F -5.9 °F 6.1 °F 81% 30.13 in 0.5 mi North 16.1 mph - 0.00 in Snow Snow
2:02 PM 10.4 °F -7.2 °F 5.0 °F 79% 29.91 in 1.0 mi NNW 17.3 mph - 0.00 in Snow Light Snow
2:16 PM 10.4 °F -4.8 °F 5.0 °F 79% 29.91 in 0.8 mi North 12.7 mph - 0.00 in Snow Light Snow
2:53 PM 10.9 °F -4.1 °F 6.1 °F 81% 30.13 in 0.8 mi North 12.7 mph - 0.00 in Snow Light Snow
3:01 PM 10.4 °F -5.4 °F 5.0 °F 79% 29.92 in 1.2 mi North 13.8 mph - 0.00 in Snow Light Snow
3:20 PM 10.4 °F -5.4 °F 5.0 °F 79% 29.92 in 0.8 mi North 13.8 mph - 0.00 in Snow Light Snow
3:53 PM 10.0 °F -6.5 °F 5.0 °F 80% 30.14 in 0.8 mi North 15.0 mph - 0.00 in Snow Light Snow
4:17 PM 10.4 °F -4.1 °F 5.0 °F 79% 29.94 in 2.0 mi North 11.5 mph - 0.00 in Snow Light Snow
4:20 PM 10.4 °F -4.1 °F 5.0 °F 79% 29.93 in 4.0 mi North 11.5 mph - 0.00 in Snow Light Snow
4:53 PM 9.0 °F -4.2 °F 6.1 °F 88% 30.17 in 1.8 mi North 9.2 mph - 0.00 in Snow Light Snow
5:11 PM 8.6 °F -3.7 °F 6.8 °F 92% 29.95 in 3.0 mi NNW 8.1 mph - 0.00 in Snow Light Snow
5:53 PM 8.1 °F -3.2 °F 3.9 °F 83% 30.19 in 10.0 mi NNW 6.9 mph - 0.00 in   Overcast
6:53 PM 5.0 °F -5.6 °F 1.9 °F 87% 30.23 in 10.0 mi NNW 5.8 mph - N/A   Overcast
7:53 PM 3.9 °F -9.4 °F 1.0 °F 88% 30.25 in 10.0 mi NNW 8.1 mph - N/A   Overcast
8:53 PM 1.9 °F -12.9 °F -5.1 °F 72% 30.27 in 10.0 mi NNW 9.2 mph - N/A   Overcast
9:53 PM -7.1 °F -23.9 °F -13.0 °F 75% 30.32 in 10.0 mi NNW 9.2 mph - N/A   Clear
10:53 PM -5.1 °F -25.1 °F -14.1 °F 65% 30.32 in 10.0 mi NW 13.8 mph - N/A   Clear
11:53 PM -2.9 °F -22.4 °F -13.0 °F 62% 30.30 in 10.0 mi WNW 13.8 mph - N/A   Clear